Regional Weather Roundup
Issued by NWS

Home | Current Version | Previous Version | Text Only | Print | Product List | Glossary Off
Versions: 1 2 3 4 5 6 7 8 9 10 11 12 13 14 15 16 17 18 19 20 21 22 23 24 25 26 27 28 29 30 31 32 33 34 35 36 37 38 39 40 41 42 43 44 45 46 47 48 49 50

000
ASUS43 KBIS 290310
RWRND

NORTH DAKOTA REGIONAL WEATHER ROUNDUP
NATIONAL WEATHER SERVICE BISMARCK ND
1000 PM CDT THU MAY 28 2015

NOTE: "FAIR" INDICATES FEW OR NO CLOUDS BELOW 12,000 FEET WITH NO
SIGNIFICANT WEATHER AND/OR OBSTRUCTIONS TO VISIBILITY.


NDZ001>003-009>011-017-290400-
NORTHWEST NORTH DAKOTA

CITY           SKY/WX    TMP DP  RH WIND       PRES   REMARKS
WILLISTON      MOCLDY    56  46  69 N22G36    30.05R
MINOT          MOCLDY    56  49  77 NW26G32   29.97R
MINOT AFB      PTCLDY    57  57  99 N21G26    29.96R
$$

NDZ018>021-031>035-040>046-290400-
SOUTHWEST NORTH DAKOTA

CITY           SKY/WX    TMP DP  RH WIND       PRES   REMARKS
BISMARCK       CLOUDY    69  56  62 N9        29.89R
DICKINSON      LGT RAIN  62  55  77 N9        29.96R
GARRISON         N/A     63  55  75 N8        29.92R
HETTINGER ARPT CLOUDY    55  50  83 W3        29.96R THUNDER
$$

NDZ004>008-012>016-024-026-027-054-290400-
NORTHEAST NORTH DAKOTA

CITY           SKY/WX    TMP DP  RH WIND       PRES   REMARKS
GRAND FORKS    MOCLDY    62  60  93 N9        29.81R
GRND FRKS AFB  MOCLDY    63  60  91 N6        29.83R
DEVILS LAKE    MOCLDY    66  54  63 N14       29.87R
$$

NDZ022-023-025-028>030-036>039-047>053-290400-
SOUTHEAST NORTH DAKOTA

CITY           SKY/WX    TMP DP  RH WIND       PRES   REMARKS
FARGO          LGT RAIN  65  61  87 SE6       29.81R
JAMESTOWN      CLOUDY    68  60  75 N9        29.84R
$$




USA.gov is the U.S. government's official web portal to all federal, state and local government web resources and services.